GW2930 Weather Reports


time (UTC)temp
C
wind
direction
speed
KPH
gust
KPH
rain 1hr
cm
rain 24hr
cm
rain mn
cm
humidity
%
barometer
mb
20260506222708 18 195 6.4 17.7 0.00 0.00 0.00 74 1019.5
20260506222203 18 225 3.2 29.0 0.00 0.00 0.00 72 1019.5
20260506221701 18 253 16.1 17.7 0.00 0.00 0.00 72 1019.6
20260506221159 20 213 4.8 16.1 0.00 0.00 0.00 71 1019.5
20260506220656 19 65 0.0 22.5 0.00 0.00 0.00 71 1019.7
20260506220150 19 179 6.4 17.7 0.00 0.00 0.00 70 1020.0
20260506215648 19 238 8.0 16.1 0.00 0.00 0.00 70 1020.0
20260506215143 20 254 6.4 19.3 0.00 0.00 0.00 69 1020.0
20260506214640 20 291 4.8 19.3 0.00 0.00 0.00 67 1020.0
20260506214137 20 238 3.2 14.5 0.00 0.00 0.00 70 1019.9
20260506213636 19 279 4.8 17.7 0.00 0.00 0.00 70 1020.0
20260506213132 19 249 9.7 17.7 0.00 0.00 0.00 70 1020.0
20260506212630 19 204 8.0 17.7 0.00 0.00 0.00 69 1020.1
20260506212124 20 289 8.0 17.7 0.00 0.00 0.00 68 1020.2
20260506211620 19 256 11.3 16.1 0.00 0.00 0.00 69 1020.1
20260506211117 20 170 4.8 17.7 0.00 0.00 0.00 69 1020.0
20260506210614 19 288 9.7 16.1 0.00 0.00 0.00 70 1020.2
20260506210110 19 287 6.4 12.9 0.00 0.00 0.00 71 1020.1
20260506205608 19 222 8.0 20.9 0.00 0.00 0.00 70 1020.2
20260506205103 19 285 8.0 14.5 0.00 0.00 0.00 69 1020.2
20260506204601 19 220 3.2 16.1 0.00 0.00 0.00 70 1020.3
20260506204058 18 43 3.2 19.3 0.00 0.00 0.00 72 1020.3
20260506203556 19 289 4.8 20.9 0.00 0.00 0.00 70 1020.0
20260506203052 19 222 4.8 19.3 0.00 0.00 0.00 70 1020.1
20260506202550 20 170 3.2 22.5 0.00 0.00 0.00 69 1020.2
20260506202046 20 295 3.2 14.5 0.00 0.00 0.00 69 1020.1
20260506201544 20 194 4.8 12.9 0.00 0.00 0.00 69 1020.2
20260506201040 20 244 8.0 19.3 0.00 0.00 0.00 69 1020.5
20260506200536 20 204 8.0 11.3 0.00 0.00 0.00 68 1020.2
20260506200033 20 266 4.8 16.1 0.00 0.00 0.00 68 1020.2
20260506195530 19 272 3.2 19.3 0.00 0.00 0.00 70 1020.3
20260506195026 19 252 11.3 16.1 0.00 0.00 0.00 69 1020.4
20260506194524 20 208 3.2 14.5 0.00 0.00 0.00 69 1020.5
20260506194020 20 282 9.7 16.1 0.00 0.00 0.00 68 1020.4
20260506193518 20 316 4.8 12.9 0.00 0.00 0.00 68 1020.7
20260506193015 20 256 1.6 17.7 0.00 0.00 0.00 69 1020.5
20260506192511 20 272 6.4 11.3 0.00 0.00 0.00 68 1020.5
20260506192007 20 321 8.0 16.1 0.00 0.00 0.00 67 1020.6
20260506191504 21 272 3.2 14.5 0.00 0.00 0.00 66 1020.7
20260506191001 21 294 4.8 14.5 0.00 0.00 0.00 67 1020.8
20260506190458 20 278 8.0 14.5 0.00 0.00 0.00 67 1020.7
20260506185954 21 8 3.2 17.7 0.00 0.00 0.00 66 1020.9
20260506185451 21 330 1.6 12.9 0.00 0.00 0.00 67 1020.9
20260506184942 21 277 3.2 12.9 0.00 0.00 0.00 66 1020.8
20260506184439 21 18 3.2 9.7 0.00 0.00 0.00 65 1020.7
20260506183937 22 288 0.0 6.4 0.00 0.00 0.00 65 1020.8
20260506183432 21 33 1.6 8.0 0.00 0.00 0.00 67 1020.9
20260506182929 21 341 0.0 9.7 0.00 0.00 0.00 66 1020.8
20260506182426 21 203 1.6 11.3 0.00 0.00 0.00 67 1020.7
20260506181924 21 329 3.2 11.3 0.00 0.00 0.00 65 1020.9
20260506181422 21 76 0.0 4.8 0.00 0.00 0.00 61 1021.0
20260506180918 21 67 8.0 8.0 0.00 0.00 0.00 60 1020.7
20260506180414 22 106 1.6 8.0 0.00 0.00 0.00 60 1020.6
20260506175911 22 345 0.0 6.4 0.00 0.00 0.00 59 1020.9
20260506175408 22 355 0.0 4.8 0.00 0.00 0.00 61 1020.8
20260506174905 22 295 3.2 8.0 0.00 0.00 0.00 59 1020.7
20260506174403 21 44 0.0 3.2 0.00 0.00 0.00 63 1020.9
20260506173900 21 311 1.6 8.0 0.00 0.00 0.00 62 1020.7
20260506173356 21 333 1.6 4.8 0.00 0.00 0.00 61 1021.0
20260506172854 21 33 3.2 9.7 0.00 0.00 0.00 62 1020.7
20260506172350 22 135 4.8 6.4 0.00 0.00 0.00 61 1020.8
20260506171848 21 6 3.2 6.4 0.00 0.00 0.00 63 1020.8
20260506171344 20 89 0.0 6.4 0.00 0.00 0.00 66 1020.8
20260506170842 20 6 3.2 8.0 0.00 0.00 0.00 64 1021.1
20260506170337 21 344 3.2 6.4 0.00 0.00 0.00 65 1020.9
20260506165831 20 52 0.0 6.4 0.00 0.00 0.00 66 1020.9
20260506165328 20 42 4.8 6.4 0.00 0.00 0.00 68 1021.3
20260506164819 20 55 0.0 6.4 0.00 0.00 0.00 69 1021.2
20260506164316 19 300 3.2 8.0 0.00 0.00 0.00 70 1021.2
20260506163813 19 264 0.0 4.8 0.00 0.00 0.00 68 1021.2
20260506163308 19 40 4.8 11.3 0.00 0.00 0.00 68 1021.1
20260506162803 20 101 3.2 6.4 0.00 0.00 0.00 67 1021.3
20260506162301 19 247 0.0 8.0 0.00 0.00 0.00 69 1021.1
20260506161758 20 24 0.0 4.8 0.00 0.00 0.00 68 1021.1
20260506161256 20 95 3.2 6.4 0.00 0.00 0.00 69 1021.1
20260506160748 19 76 0.0 9.7 0.00 0.00 0.00 70 1021.2
20260506160244 19 10 3.2 6.4 0.00 0.00 0.00 69 1021.4
20260506155743 18 47 3.2 8.0 0.00 0.00 0.00 69 1021.2
20260506155240 19 51 3.2 8.0 0.00 0.00 0.00 69 1021.1
20260506153352 19 53 4.8 6.4 0.00 0.00 0.00 69 1021.1
20260506152849 18 22 0.0 4.8 0.00 0.00 0.00 71 1021.3
20260506152346 18 9 0.0 8.0 0.00 0.00 0.00 71 1021.3
20260506151845 18 45 3.2 6.4 0.00 0.00 0.00 71 1021.4
20260506151341 18 65 3.2 4.8 0.00 0.00 0.00 71 1021.4
20260506150839 18 32 0.0 4.8 0.00 0.00 0.00 72 1021.3
20260506150335 18 342 0.0 8.0 0.00 0.00 0.00 73 1021.6
20260506145832 18 147 0.0 8.0 0.00 0.00 0.00 72 1021.4
20260506145328 17 50 0.0 4.8 0.00 0.00 0.00 75 1021.3
20260506144826 17 110 1.6 4.8 0.00 0.00 0.00 74 1021.2
20260506144322 18 57 4.8 4.8 0.00 0.00 0.00 73 1021.5
20260506143821 17 83 1.6 4.8 0.00 0.00 0.00 77 1021.2
20260506143317 17 131 1.6 4.8 0.00 0.00 0.00 77 1021.5
20260506142816 16 199 0.0 4.8 0.00 0.00 0.00 81 1021.5
20260506142313 15 301 1.6 4.8 0.00 0.00 0.00 91 1021.2
20260506141812 14 348 0.0 3.2 0.00 0.00 0.00 93 1021.5
20260506141309 12 28 0.0 3.2 0.00 0.00 0.00 93 1021.2
20260506140807 12 69 0.0 3.2 0.00 0.00 0.00 93 1021.3
20260506140303 12 168 0.0 3.2 0.00 0.00 0.00 93 1021.2
20260506135801 12 262 0.0 3.2 0.00 0.00 0.00 93 1021.1
20260506135257 12 60 0.0 3.2 0.00 0.00 0.00 94 1020.9
20260506134754 11 60 0.0 3.2 0.00 0.00 0.00 94 1020.8
20260506134250 11 125 0.0 3.2 0.00 0.00 0.00 94 1020.7
20260506133747 11 41 0.0 4.8 0.00 0.00 0.00 94 1021.0
20260506133244 11 283 0.0 4.8 0.00 0.00 0.00 94 1020.8
20260506132741 11 287 0.0 3.2 0.00 0.00 0.00 94 1020.9
20260506132238 11 93 0.0 4.8 0.00 0.00 0.00 94 1020.7
20260506131736 11 167 0.0 3.2 0.00 0.00 0.00 94 1020.6
20260506131232 11 320 0.0 3.2 0.00 0.00 0.00 94 1020.5
20260506130729 11 290 0.0 4.8 0.00 0.00 0.00 94 1020.7
20260506130226 11 105 0.0 3.2 0.00 0.00 0.00 94 1020.5
20260506125724 12 20 0.0 4.8 0.00 0.00 0.00 94 1020.4
20260506125221 12 292 1.6 3.2 0.00 0.00 0.00 94 1020.4
20260506124719 12 315 0.0 3.2 0.00 0.00 0.00 94 1020.4
20260506124217 12 25 1.6 3.2 0.00 0.00 0.00 93 1020.4
20260506123714 12 228 0.0 4.8 0.00 0.00 0.00 93 1020.2
20260506123213 12 198 1.6 3.2 0.00 0.00 0.00 94 1020.3
20260506122709 12 180 0.0 6.4 0.00 0.00 0.00 94 1020.3
20260506122207 12 220 4.8 6.4 0.00 0.00 0.00 94 1020.2
20260506121704 12 203 3.2 6.4 0.00 0.00 0.00 94 1020.1
20260506121201 12 215 4.8 8.0 0.00 0.00 0.00 94 1020.1
20260506120659 12 210 3.2 6.4 0.00 0.00 0.00 94 1020.0
20260506120156 12 218 4.8 8.0 0.00 0.00 0.00 94 1020.0
20260506115654 12 215 3.2 6.4 0.00 0.00 0.00 94 1020.2
20260506115152 12 210 0.0 6.4 0.00 0.00 0.00 95 1020.1
20260506114649 11 177 3.2 6.4 0.00 0.00 0.00 95 1019.9
20260506114147 11 233 4.8 8.0 0.00 0.00 0.00 95 1020.2
20260506113645 11 215 6.4 11.3 0.00 0.00 0.00 95 1019.9
20260506113142 11 187 4.8 8.0 0.00 0.00 0.00 95 1020.0
20260506112638 11 202 6.4 8.0 0.00 0.00 0.00 95 1020.0
20260506112136 11 196 3.2 4.8 0.00 0.00 0.00 95 1020.0
20260506111633 11 224 0.0 6.4 0.00 0.00 0.00 95 1020.0
20260506111131 11 241 0.0 6.4 0.00 0.00 0.00 95 1019.9
20260506110628 11 226 3.2 6.4 0.00 0.00 0.00 95 1019.8
20260506110125 11 220 1.6 9.7 0.00 0.00 0.00 95 1019.9
20260506105622 11 181 0.0 6.4 0.00 0.00 0.00 95 1019.9
20260506105119 11 237 4.8 8.0 0.00 0.00 0.00 95 1019.8
20260506104617 11 162 1.6 6.4 0.00 0.00 0.00 95 1019.8
20260506104114 11 235 0.0 6.4 0.00 0.00 0.00 95 1019.9
20260506103611 11 245 1.6 6.4 0.00 0.00 0.00 95 1019.9
20260506103108 11 237 1.6 4.8 0.00 0.00 0.00 96 1019.9
20260506102606 11 189 3.2 6.4 0.00 0.00 0.00 96 1019.8
20260506102104 11 200 4.8 6.4 0.00 0.00 0.00 96 1019.9
20260506101600 11 159 0.0 4.8 0.00 0.00 0.00 96 1019.9
20260506101057 11 251 1.6 6.4 0.00 0.00 0.00 96 1019.8
20260506100555 11 211 1.6 6.4 0.00 0.00 0.00 96 1019.8
20260506100053 11 246 0.0 6.4 0.00 0.00 0.00 96 1019.9
20260506095552 11 210 4.8 8.0 0.00 0.00 0.00 96 1020.0
20260506095048 11 204 1.6 8.0 0.00 0.00 0.00 95 1020.0
20260506094545 11 209 3.2 6.4 0.00 0.00 0.00 95 1020.0
20260506094043 12 214 3.2 9.7 0.00 0.00 0.00 95 1020.0
20260506093541 12 210 4.8 8.0 0.00 0.00 0.00 95 1020.1
20260506093038 12 180 3.2 9.7 0.00 0.00 0.00 95 1020.2
20260506092536 12 229 3.2 8.0 0.00 0.00 0.00 94 1020.1
20260506092033 12 214 4.8 8.0 0.00 0.00 0.00 94 1019.9
20260506091531 12 216 4.8 9.7 0.00 0.00 0.00 94 1020.0
20260506091028 12 229 4.8 6.4 0.00 0.00 0.00 94 1019.9
20260506090526 12 192 1.6 8.0 0.00 0.00 0.00 94 1020.0
20260506090022 12 229 3.2 8.0 0.00 0.00 0.00 94 1020.0
20260506085519 12 221 4.8 9.7 0.00 0.00 0.00 93 1020.1
20260506085015 12 106 0.0 4.8 0.00 0.00 0.00 93 1019.9
20260506084512 12 202 3.2 6.4 0.00 0.00 0.00 94 1020.2
20260506084008 12 243 3.2 6.4 0.00 0.00 0.00 94 1020.1
20260506083506 12 198 3.2 8.0 0.00 0.00 0.00 94 1019.7
20260506083003 12 212 3.2 8.0 0.00 0.00 0.00 94 1019.9
20260506082500 12 214 4.8 9.7 0.00 0.00 0.00 94 1019.8
20260506081955 12 220 4.8 9.7 0.00 0.00 0.00 94 1020.0
20260506081454 12 220 3.2 8.0 0.00 0.00 0.00 94 1019.7
20260506080951 12 216 1.6 6.4 0.00 0.00 0.00 94 1019.9
20260506080448 12 208 3.2 8.0 0.00 0.00 0.00 94 1019.8
20260506073431 12 214 1.6 8.0 0.00 0.00 0.00 93 1019.7
20260506072929 12 234 1.6 8.0 0.00 0.00 0.00 93 1019.7
20260506072426 12 214 4.8 8.0 0.00 0.00 0.00 93 1019.6
20260506071924 12 243 0.0 8.0 0.00 0.00 0.00 93 1019.5
20260506071422 13 225 3.2 8.0 0.00 0.00 0.00 92 1019.6
20260506070918 13 156 1.6 9.7 0.00 0.00 0.00 92 1019.3
20260506070415 13 243 4.8 8.0 0.00 0.00 0.00 92 1019.5
20260506062353 13 240 1.6 8.0 0.00 0.00 0.00 91 1019.2
20260506061848 13 243 3.2 11.3 0.00 0.00 0.00 90 1019.2
20260506061345 13 210 3.2 8.0 0.00 0.00 0.00 90 1019.2
20260506060843 13 222 3.2 8.0 0.00 0.00 0.00 90 1019.3
20260506060341 13 222 1.6 8.0 0.00 0.00 0.00 90 1019.2
20260506051313 13 232 3.2 8.0 0.00 0.00 0.00 88 1019.0
20260506050811 13 254 1.6 9.7 0.00 0.00 0.00 88 1019.0
20260506050308 13 233 1.6 6.4 0.00 0.00 0.00 88 1018.8
20260506044758 13 229 0.0 8.0 0.00 0.00 0.00 88 1018.8
20260506044256 13 231 3.2 6.4 0.00 0.00 0.00 88 1018.7
20260506043753 13 222 0.0 8.0 0.00 0.00 0.00 88 1018.5
20260506043250 13 252 3.2 11.3 0.00 0.00 0.00 88 1018.7
20260506042749 13 239 3.2 9.7 0.00 0.00 0.00 88 1018.7
20260506042247 13 248 1.6 8.0 0.00 0.00 0.00 87 1018.7
20260506041745 13 232 3.2 6.4 0.00 0.00 0.00 88 1018.6
20260506041242 13 236 1.6 8.0 0.00 0.00 0.00 87 1018.6
20260506040739 13 225 3.2 9.7 0.00 0.00 0.00 87 1018.7
20260506040236 13 242 0.0 8.0 0.00 0.00 0.00 88 1018.7
20260506035733 13 207 0.0 8.0 0.00 0.00 0.00 88 1018.4
20260506035230 13 269 0.0 8.0 0.00 0.00 0.00 88 1018.3
20260506034727 13 232 1.6 6.4 0.00 0.00 0.00 88 1018.3
20260506034224 13 228 1.6 6.4 0.00 0.00 0.00 88 1018.4
20260506033721 13 222 3.2 6.4 0.00 0.00 0.00 89 1018.3
20260506033218 13 222 4.8 6.4 0.00 0.00 0.00 89 1018.1
20260506032715 13 231 0.0 4.8 0.00 0.00 0.00 89 1018.3
20260506032212 13 40 3.2 6.4 0.00 0.00 0.00 89 1018.2
20260506031709 13 228 3.2 6.4 0.00 0.00 0.00 89 1018.1
20260506031206 13 212 0.0 6.4 0.00 0.00 0.00 88 1017.9
20260506030704 13 238 3.2 4.8 0.00 0.00 0.00 88 1018.0
20260506030201 13 241 3.2 4.8 0.00 0.00 0.00 88 1017.5
20260506025658 13 186 0.0 9.7 0.00 0.00 0.00 88 1017.7
20260506025154 13 231 3.2 8.0 0.00 0.00 0.00 87 1017.6
20260506024646 13 227 1.6 6.4 0.00 0.00 0.00 87 1017.6
20260506024142 14 220 0.0 6.4 0.00 0.00 0.00 87 1017.8
20260506023638 14 172 0.0 4.8 0.00 0.00 0.00 86 1017.7
20260506023136 14 236 1.6 6.4 0.00 0.00 0.00 86 1017.9
20260506022633 14 267 3.2 4.8 0.00 0.00 0.00 86 1017.9
20260506022130 14 252 6.4 8.0 0.00 0.00 0.00 85 1018.0
20260506021628 14 265 1.6 11.3 0.00 0.00 0.00 85 1017.5
20260506021125 15 283 0.0 6.4 0.00 0.00 0.00 84 1017.8
20260506020622 15 48 0.0 8.0 0.00 0.00 0.00 83 1017.6
20260506020120 15 238 3.2 16.1 0.00 0.00 0.00 82 1017.8
20260506015617 15 296 1.6 6.4 0.00 0.00 0.00 82 1017.6
20260506015114 15 221 3.2 8.0 0.00 0.00 0.00 82 1017.7
20260506014612 15 298 0.0 6.4 0.00 0.00 0.00 82 1017.6
20260506014107 15 201 1.6 8.0 0.00 0.00 0.00 81 1017.6
20260506013605 15 256 3.2 9.7 0.00 0.00 0.00 81 1017.7
20260506013102 15 268 1.6 8.0 0.00 0.00 0.00 81 1017.6
20260506012558 15 239 0.0 8.0 0.00 0.00 0.00 80 1017.3
20260506012055 15 247 3.2 8.0 0.00 0.00 0.00 80 1017.3
20260506011553 15 167 1.6 11.3 0.00 0.00 0.00 81 1017.4
20260506011048 15 298 4.8 6.4 0.00 0.00 0.00 80 1017.6
20260506010548 15 249 3.2 8.0 0.00 0.00 0.00 80 1017.5
20260506010044 16 195 3.2 4.8 0.00 0.00 0.00 79 1017.5
20260506005541 15 260 4.8 6.4 0.00 0.00 0.00 79 1017.6
20260506005037 15 263 4.8 8.0 0.00 0.00 0.00 78 1017.4
20260506004535 15 230 1.6 11.3 0.00 0.00 0.00 77 1017.6
20260506004031 16 334 3.2 11.3 0.00 0.00 0.00 77 1017.4
20260506003528 16 284 3.2 9.7 0.00 0.00 0.00 77 1017.3
20260506003024 16 232 3.2 11.3 0.00 0.00 0.00 76 1017.4
20260506002520 16 118 1.6 6.4 0.00 0.00 0.00 76 1017.4
20260506002016 16 154 0.0 14.5 0.00 0.00 0.00 75 1017.4
20260506001512 16 326 4.8 14.5 0.00 0.00 0.00 74 1017.3
20260506001010 17 313 3.2 14.5 0.00 0.00 0.00 73 1017.3
20260506000507 17 299 8.0 16.1 0.00 0.00 0.00 72 1017.2
20260506000004 17 260 4.8 11.3 0.00 0.00 0.00 72 1017.2
20260505235502 17 258 0.0 12.9 0.00 0.00 0.00 72 1017.1
20260505234959 17 278 3.2 11.3 0.00 0.00 0.00 72 1017.1
20260505234456 17 245 9.7 14.5 0.00 0.00 0.00 71 1017.3
20260505233953 17 299 8.0 12.9 0.00 0.00 0.00 69 1017.2
20260505233450 17 12 3.2 19.3 0.00 0.00 0.00 70 1017.1
20260505232947 18 26 6.4 14.5 0.00 0.00 0.00 68 1017.1
20260505232446 18 24 3.2 8.0 0.00 0.00 0.00 68 1017.3
20260505231942 18 307 3.2 14.5 0.00 0.00 0.00 67 1017.2
20260505231440 19 165 3.2 11.3 0.00 0.00 0.00 66 1017.2
20260505230938 19 355 4.8 11.3 0.00 0.00 0.00 66 1017.1
20260505230435 18 223 0.0 14.5 0.00 0.00 0.00 69 1017.2
20260505225931 18 346 3.2 19.3 0.00 0.00 0.00 71 1016.9
20260505225429 18 332 4.8 12.9 0.00 0.00 0.00 71 1017.2
20260505224924 18 244 8.0 16.1 0.00 0.00 0.00 70 1017.2
20260505224421 17 218 3.2 8.0 0.00 0.00 0.00 72 1017.4
20260505223918 17 38 1.6 12.9 0.00 0.00 0.00 72 1017.3
20260505223416 19 188 3.2 11.3 0.00 0.00 0.00 67 1017.4